Regional Weather Roundup
Issued by NWS

Home | Current Version | Previous Version | Graphics & Text | Print | Product List | Glossary On
Versions: 1 2 3 4 5 6 7 8 9 10 11 12 13 14 15 16 17 18 19 20 21 22 23 24 25 26 27 28 29 30 31 32 33 34 35 36 37 38 39 40 41 42 43 44 45 46 47 48 49 50
000
ASUS43 KLOT 030603
RWRIL

ILLINOIS REGIONAL WEATHER ROUNDUP
NATIONAL WEATHER SERVICE CHICAGO/ROMEOVILLE IL
1200 AM CST SAT DEC 03 2016

NOTE: "FAIR" INDICATES FEW OR NO CLOUDS BELOW 12,000 FEET WITH NO
SIGNIFICANT WEATHER AND/OR OBSTRUCTIONS TO VISIBILITY.

* THESE STATIONS ARE NOT UNDER NWS QUALITY CONTROL. THEY ALSO MAY NOT
  REPORT WEATHER SUCH AS PRECIPITATION OR FOG.

ILZ001-002-007-009-015-016-024-030700-
NORTHWEST ILLINOIS

CITY           SKY/WX    TMP DP  RH WIND       PRES   REMARKS
MOLINE         MOCLDY    34  25  69 N8        30.32F WCI  27
6HR MIN TEMP:  34; 6HR MAX TEMP:  37;

STERLING*      CLOUDY    33  26  75 W7        30.34R WCI  27
$$

ILZ003-004-008-010-011-017-018-030700-
NORTH CENTRAL ILLINOIS

CITY           SKY/WX    TMP DP  RH WIND       PRES   REMARKS
ROCKFORD       CLOUDY    32  23  69 NW7       30.33F WCI  26
6HR MIN TEMP:  32; 6HR MAX TEMP:  34;

FREEPORT*      CLOUDY    31  24  76 NW5       30.33F WCI  26
ROCHELLE*      CLOUDY    32  26  77 CALM      30.32S
$$

ILZ005-006-012>014-019>023-030700-
NORTHEAST ILLINOIS

CITY           SKY/WX    TMP DP  RH WIND       PRES   REMARKS
CHICAGO-OHARE  CLOUDY    34  23  64 W7        30.30F WCI  28
6HR MIN TEMP:  34; 6HR MAX TEMP:  37;

CHICAGO-MIDWAY CLOUDY    35  21  56 W8        30.31F WCI  29
6HR MIN TEMP:  35; 6HR MAX TEMP:  38;

AURORA         CLOUDY    33  27  78 NW5       30.32S WCI  29
6HR MIN TEMP:  33; 6HR MAX TEMP:  36;

LANSING*       CLOUDY    34  27  75 W6        30.31S WCI  29
WAUKEGAN       CLOUDY    33  22  63 W6        30.30F WCI  28
6HR MIN TEMP:  33; 6HR MAX TEMP:  34;

DUPAGE AIRPORT CLOUDY    33  23  66 W7        30.30F WCI  27
6HR MIN TEMP:  33; 6HR MAX TEMP:  36;

KANKAKEE*      CLOUDY    36  27  69 NW5       30.32F WCI  32
WHEELING       CLOUDY    34  23  64 NW6       30.32S WCI  29
6HR MIN TEMP:  34; 6HR MAX TEMP:  36;

MORRIS*        CLOUDY    34  29  83 CALM      30.32R
NORTHERLY ISL    N/A     35  25  67 SW6         N/A  WCI  30
$$

LMZ740>746-030700-
SOUTHERN LAKE MICHIGAN

STATION/POSITION SKY/WX   TEMP    WIND        PRES    VSBY  WAVE
                          AIR SEA DIR/SP/G                  HT/PER
                          (F)     (DEG/KT/KT) (MB)    (MI)  (FT/S)
SOUTHERN BUOY              37 49  300/ 10/ 12 1026.0          2/ 5
HARRISON CRIB              36     320/  6/  6   N/A
BURNHAM HARBOR             36     300/  6/  9   N/A
CALUMET HARBOR             35     280/  5/  8 1025.8F
BURNS HARBOR               37     230/  9/ 12 1026.4S
MICHIGAN CITY              37     290/ 13/ 15   N/A
$$

ILZ025>027-034>036-040-047-049-050-058-095>099-030700-
WEST-CENTRAL ILLINOIS

CITY           SKY/WX    TMP DP  RH WIND       PRES   REMARKS
QUINCY         CLOUDY    35  31  85 S3        30.35R
GALESBURG*     CLOUDY    33  28  82 NW3       30.33F
MACOMB*        CLOUDY    35  32  89 NE3       30.35F
JACKSONVILLE*  CLOUDY    35  32  89 CALM      30.35S
PITTSFIELD*    CLOUDY    31  28  89 CALM      30.37R
$$

ILZ028>032-037-038-041>044-048-051>054-059>061-030700-
CENTRAL ILLINOIS

CITY           SKY/WX    TMP DP  RH WIND       PRES   REMARKS
PONTIAC        CLOUDY    35  30  80 NW6       30.33F WCI  30
DECATUR        CLOUDY    39  29  67 N7        30.35R WCI  34
PEORIA         CLOUDY    36  27  69 N3        30.34S
6HR MIN TEMP:  36; 6HR MAX TEMP:  40;

LACON*         CLOUDY    34  27  75 NW8       30.32F WCI  27
LINCOLN*       CLOUDY    38  32  79 N3        30.35S
SPRINGFIELD    CLOUDY    39  32  76 CALM      30.35S
6HR MIN TEMP:  39; 6HR MAX TEMP:  42;

TAYLORVILLE    CLOUDY    37  34  88 CALM      30.36R
6HR MIN TEMP:  37; 6HR MAX TEMP:  39;

$$

ILZ033-039-045-046-055>057-062-063-030700-
EAST-CENTRAL ILLINOIS

CITY           SKY/WX    TMP DP  RH WIND       PRES   REMARKS
CHAMPAIGN      CLOUDY    38  28  67 NW12      30.34R WCI  30
RANTOUL*       CLOUDY    37  31  76 W8        30.33R WCI  31
MATTOON        CLOUDY    38  32  79 CALM      30.32
PARIS*         CLOUDY    37  35  93 CALM      30.34S
$$

ILZ079-100>102-030700-
SOUTHWEST ILLINOIS

CITY           SKY/WX    TMP DP  RH WIND       PRES   REMARKS
ALTON          CLEAR     31  29  94 CALM      30.38R
BELLEVILLE     PTCLDY    30  29  99 CALM      30.36R
SPARTA*        CLEAR     34  30  86 CALM      30.38S
$$

ILZ064>066-069>071-074>076-080>082-084>086-088>090-092>094-030700-
SOUTH-CENTRAL ILLINOIS

CITY           SKY/WX    TMP DP  RH WIND       PRES   REMARKS
CARBONDALE     CLEAR     30  29  96 CALM      30.37F
6HR MIN TEMP:  28; 6HR MAX TEMP:  41;

CAIRO*         CLOUDY    37  32  80 NE6       30.35S WCI  33
EFFINGHAM*     CLOUDY    37  37  97 SW3       30.37R
MARION         CLEAR     30  30 100 CALM      30.38R FOG
CENTRALIA*     PTCLDY    31  30  96 CALM      30.36S
SALEM*         PTCLDY    32  30  92 CALM      30.37R FOG
METROPOLIS*    CLOUDY    38  31  76 CALM      30.36S
$$

ILZ067-068-072-073-078-083-087-091-030700-
SOUTHEAST ILLINOIS

CITY           SKY/WX    TMP DP  RH WIND       PRES   REMARKS
LAWRENCEVILLE  CLOUDY    39  32  76 CALM      30.35S
FLORA*         CLOUDY    37  33  87 CALM      30.37R
FAIRFIELD*     PTCLDY    31  30  98 CALM      30.37R
HARRISBURG*    CLEAR     33  31  94 CALM      30.37F
ROBINSON*      CLOUDY    38  33  83 CALM      30.35F
CARMI*         CLEAR     30  30  99 CALM      30.37R FOG
$$

ABBREVIATIONS USED IN REMARKS
   TC - TEMPERATURE IN CELSIUS
  WCI - WIND CHILL INDEX
   HX - HEAT INDEX
  VSB - VISIBILITY
$$





USA.gov is the U.S. government's official web portal to all federal, state and local government web resources and services.